Voltar ao catálogo

METEOR 1-17 DEB

AtivoPO
NORAD 57545·DEBRIS·🇷🇺 Russia

Lançado Apr 24, 1974 de Plesetsk Cosmodrome

Loading…

Próximas Passagens (próximas 24 horas)

TLE

AtualizadoSource: Space-Track

Época: Sep 14, 2026, 12:45 UTC

1 57545U 74025L   26257.53162279  .00003413  00000-0  14779-2 0  9992
2 57545  81.2135 194.7919 0015195  21.6536 338.5281 14.24068777 13798

Acompanhe METEOR 1-17 DEB em tempo real com AllMySat

Download on the App Store